Tracking 19562 objects as of 25-Mar-2019
HD Live streaming from Space Station
objects crossing your sky now

COSMOS 1640

Track COSMOS 1640 now!
10-day predictions
COSMOS 1640 is classified as:


NORAD ID: 15622
Int'l Code: 1985-023F
Perigee: 1,433.7 km
Apogee: 1,486.2 km
Inclination: 74.1 °
Period: 114.9 minutes
Semi major axis: 7830 km
RCS: 0.7149 m2 (medium)
Launch date: March 21, 1985
Source: Commonwealth of Independent States (former USSR) (CIS)
Launch site: PLESETSK MISSILE AND SPACE COMPLEX (PKMTR)
aabbcc
Your satellite tracking list
Your tracking list is empty




NASA's NSSDC Master Catalog

Two Line Element Set (TLE):
1 15622U 85023F   19083.71101164 -.00000020  00000-0 -26427-4 0  9995
2 15622  74.0561 184.1588 0033524  30.2258  82.4783 12.52795136555551
Source of the keplerian elements: AFSPC